Location: Newark
(21.1200°N, 73.4000°E)
Time: 02:49:30
(UTC+00:00)

Courier 1B Rocket - Pass Details

Date: 18 January 2020
Orbit: 920 x 1202 km, 28.2° (Epoch: 19 February)

Event Time Altitude Azimuth Distance (km) Brightness Sun altitude
Rises 08:45:14 0° 252° (WSW) 3,759 8.6 43.0°
Reaches altitude 10° 08:48:00 10° 254° (WSW) 2,766 8.0 42.7°
Maximum altitude 08:54:41 80° 341° (NNW) 971 5.7 41.9°
Drops below altitude 10° 09:01:00 10° 68° (ENE) 2,624 7.0 41.1°
Sets 09:03:34 0° 70° (ENE) 3,554 7.6 40.8°
